Orbital Elements
Epoch 2023 Feb. 25.0 TT = JDT 2460000.5
T 2023 Jan. 22.78101 TT Rudenko
q 1.5888209 (2000.0) P Q
n 0.17729708 Peri. 209.05969 -0.03265095 +0.98945143
a 3.1381112 Node 59.39360 -0.88239353 +0.03778002
e 0.4937015 Incl. 9.43814 -0.46937786 -0.13985187
P 5.56
>From 1075 observations 2016 Feb. 12-2023 Mar. 8, mean residual 0".7.
Nongravitational parameters A1 = +3.09, A2 = +0.3682.
|